Location: Unspecified
(0.0000°N, 0.0000°E)
Time: 21:17:22
(UTC+00:00)

CZ-3C DEB - Visible Passes

Search period start: 29 April 2025 00:00
Search period end: 09 May 2025 00:00
Orbit: 374 x 35420 km, 20.4° (Epoch: 09 January)

Date Brightness Start Highest point End Pass type
(mag) Time Alt. Az. Time Alt. Az. Time Alt. Az.
30 Apr ? 04:03:04 32° SE 04:03:04 32° SE 04:06:45 10° ESE visible
30 Apr ? 15:19:39 10° WSW 16:47:14 28° WSW 19:55:21 10° W visible
01 May ? 00:20:06 10° WNW 00:21:23 11° NW 00:21:23 11° NW visible
01 May ? 11:23:15 10° WSW 14:11:52 78° SSW 21:01:40 25° NE visible
03 May ? 04:23:59 38° S 04:23:59 38° S 04:30:45 10° ESE visible
03 May ? 15:54:40 10° WSW 17:06:58 20° WSW 19:15:46 10° W visible
04 May ? 11:46:26 10° WSW 14:03:44 73° SW 21:22:33 30° NNE visible
06 May ? 04:44:36 26° SW 04:45:59 32° S 04:55:31 10° ESE visible
06 May ? 16:43:36 10° WSW 17:26:20 13° W 18:23:58 10° W visible
07 May ? 12:09:38 10° WSW 14:11:54 66° WSW 21:43:05 34° NNE visible
